Regional Weather Roundup
Issued by NWS Green Bay, WI

Home | Current Version | Previous Version | Text Only | Print | Product List | Glossary On
Versions: 1 2 3 4 5 6 7 8 9 10 11 12 13 14 15 16 17 18 19 20 21 22 23 24 25 26 27 28 29 30 31 32 33 34 35 36 37 38 39 40 41 42 43 44 45 46 47 48 49 50
375
ASUS43 KGRB 302300
RWRGRB

NORTH-CENTRAL AND NORTHEAST WISCONSIN REGIONAL WEATHER ROUNDUP
NATIONAL WEATHER SERVICE GREEN BAY WI
600 PM CDT THU MAR 30 2017

WIZ005-009-010>012-018-019-310000-
NORTH CENTRAL WISCONSIN

CITY           SKY/WX    TMP DP  RH WIND       PRES   REMARKS
IRONWOOD       CLOUDY    46  30  53 E9        29.89R
MANITOWISH WTR NOT AVBL
ARBOR VITAE    NOT AVBL
EAGLE RIVER    NOT AVBL
LAND O LAKES   NOT AVBL
RHINELANDER    CLOUDY    38  32  79 NE8       29.86S
PHILLIPS       CLOUDY    41  32  70 E9G22     29.84S
ANTIGO         NOT AVBL
TOMAHAWK       NOT AVBL
MERRILL        NOT AVBL
$$

WIZ013-073-310000-
NORTHEAST WISCONSIN

CITY           SKY/WX    TMP DP  RH WIND       PRES   REMARKS
IRON MOUNTAIN  CLOUDY    36  30  79 E8        29.90S
MARINETTE      MIX PCPN  34  32  92 NE17G25   29.90S
$$

WIZ017-030-035>037-045-310000-
CENTRAL WISCONSIN

CITY           SKY/WX    TMP DP  RH WIND       PRES   REMARKS
MEDFORD        NOT AVBL
WAUSAU         CLOUDY    36  33  89 E9G18     29.81R
MOSINEE        CLOUDY    36  34  93 NE18G26   29.82R
MARSHFIELD     CLOUDY    37  33  85 NE13      29.80R
WISC RAPIDS    CLOUDY    37  35  92 E9        29.81R
STEVENS POINT  NOT AVBL
WAUPACA        NOT AVBL
SHAWANO        CLOUDY    37  34  87 NE16G28   29.85F
CLINTONVILLE   NOT AVBL
WAUTOMA        CLOUDY    36  34  92 NE12G20   29.79R
$$

WIZ038-039-048-051-310000-
FOX VALLEY

CITY           SKY/WX    TMP DP  RH WIND       PRES   REMARKS
NWS GREEN BAY  MIX PCPN  35  35 100 NE23G31   29.82F
APPLETON       LGT RAIN  36  34  93 NE20G29   29.75F
OSHKOSH        CLOUDY    37  34  89 NE21G31   29.72F
FOND DU LAC    CLOUDY    39  34  82 NE13G25   29.76R
$$

WIZ022-050-052-310000-
EAST CENTRAL WISCONSIN

CITY           SKY/WX    TMP DP  RH WIND       PRES   REMARKS
EPHRAIM        NOT AVBL
WASHINGTON ISL NOT AVBL
STURGEON BAY   FLURRIES  34  33  96 NE14G21   29.87S
MANITOWOC      NOT AVBL
SHEBOYGAN      CLOUDY    37  34  89 NE26G35   29.73F
$$

LMZ563-521-522-541>543-310000-
LAKESHORE

STATION/POSITION TIME  TEMP    WIND        PRES    VSBY  WAVE
                       AIR SEA DIR/SP/G                  HT/PER
                 (UTC) (F)     (DEG/KT/KT) (MB)    (MI)  (FT/S)
SHEBOYGAN LKSHOR 2200   37      30/ 18/ 20 1008.9F
KEWAUNEE LKSHORE 2230   35      40/ 16/ 23 1010.4S
NORTHPORT PIER   2240   35      60/ 16/ 21 1013.2R
CHAMBERS ISLAND  2240   33      30/ 13/ 18 1012.2S
MENOMINEE LKSHOR 2230   33      30/ 19/ 24 1011.5F
$$




USA.gov is the U.S. government's official web portal to all federal, state and local government web resources and services.